User: anonymous   Login
Location: Unspecified
(0.0000°N, 0.0000°E)
Time: 09:25:17
(UTC+02:00)
Language:

H-2A R/B - Orbit

View from above orbital plane
View from above orbital plane
View from above satellite
View from above satellite

Ground track
Ground track

The orbit data is extracted from the following two-line orbital elements,

1 28932U 06002B   17268.85353122 +.00000526 +00000-0 +55147-4 0  9994
2 28932 098.2068 195.7982 0089521 342.5588 052.7837 14.91474749632700
Epoch (UTC): 25 September 2017 20:29:05
Eccentricity: 0.0089521
inclination: 98.2068°
perigee height: 531 km
apogee height: 656 km
right ascension of ascending node: 195.7982°
argument of perigee: 342.5588°
revolutions per day: 14.91474749
mean anomaly at epoch: 52.7837°
orbit number at epoch: 63270

The dashed part of the orbit path shows where the satellite is in the earth's shadow,  

DLR